User: anonymous   Login
Location: Ladrillo (historical)
(32.8195°N, 117.2231°W)
Time: 15:03:38
(UTC+00:00)
Language:

NOAA 18 - Orbit

View from above orbital plane
View from above orbital plane
View from above satellite
View from above satellite

Ground track
Ground track

The orbit data is extracted from the following two-line orbital elements,

1 28654U 05018A   21110.43598045  .00000071  00000-0  62652-4 0  9995
2 28654  98.9986 175.0573 0015310  87.1930 273.0994 14.12598961820349
Epoch (UTC): 20 April 2021 10:27:48
Eccentricity: 0.0015310
inclination: 98.9986°
perigee height: 839 km
apogee height: 861 km
right ascension of ascending node: 175.0573°
argument of perigee: 87.1930°
revolutions per day: 14.12598961
mean anomaly at epoch: 273.0994°
orbit number at epoch: 82034

The dashed part of the orbit path shows where the satellite is in the earth's shadow,  

DLR